Вернуться в каталог

STARLINK-31556

АктивенСвязьVLEO
NORAD 59544·PAYLOAD·🇺🇸 United States

Запущен Apr 18, 2024 с Cape Canaveral Space Force Station

Loading…

Ближайшие Пролёты (ближайшие 24 часа)

TLE

СвежийSource: CelesTrak SupGP

Эпоха: Sep 14, 2026, 20:18 UTC

1 59544C 24074L   26257.84631944  .00018070  00000+0  65451-3 0  2571
2 59544  43.0036 355.4374 0001497 271.3754  10.1547 15.27568225    18

Отслеживайте STARLINK-31556 в реальном времени с AllMySat

Download on the App Store